Vertical_Velocity
13 8 8 12 18 17 17 22 36 47 51 41 31 24 19 17 21 20 15 7 10 13 16 18 15 10 6 2 2 2 3 3 4 6 7 4 2 2 2 2 2 1 0 -1 -2 -2 -3 -2 -2 -2 -3 -3 -3 -3 -2 -1 -2 -2 -1 0 -1 -1 -0 0 0 -0 -1 -2 -2
19 8 -2 -3 10 30 55 80 82 76 64 43 25 17 14 14 14 12 11 12 14 13 12 14 10 6 2 1 2 3 3 3 3 2 2 2 2 2 2 2 1 0 -1 -2 -2 -3 -3 -3 -3 -3 -4 -4 -3 -3 -2 -1 -1 -1 -1 -0 -0 -1 -1 0 0 -0 -1 -2 -2
2 -1 -4 -9 -6 8 32 63 73 75 68 50 26 16 13 12 12 10 8 4 5 5 6 8 5 5 7 10 10 6 3 1 1 0 -0 0 1 1 0 -0 -1 -1 -2 -2 -3 -3 -3 -3 -3 -4 -4 -4 -3 -3 -2 -1 -0 -1 -1 -1 -1 -1 -1 -0 0 0 -0 -1 -1
-5 -5 -4 -6 -8 -6 2 18 33 42 46 45 23 18 20 20 19 15 10 8 5 5 6 10 12 15 17 16 11 6 2 -0 -0 -1 -1 -2 -2 -2 -2 -2 -2 -2 -2 -2 -3 -3 -2 -3 -3 -4 -4 -4 -3 -3 -2 -1 -1 -1 -1 -1 -1 -1 -1 -1 0 0 0 -1 -0
-4 -3 -4 -4 -6 -7 -6 -2 5 11 15 18 13 13 16 21 20 16 14 17 7 8 14 23 25 20 13 4 1 1 1 -0 -1 -1 -1 -2 -2 -2 -2 -2 -2 -2 -2 -2 -2 -2 -2 -3 -3 -4 -4 -3 -3 -2 -1 -0 -1 -1 -2 -1 -2 -2 -2 -1 -0 0 -0 -1 -0
-3 -3 -3 -3 -4 -4 -5 -4 -1 2 5 6 5 4 2 3 3 5 8 9 8 11 16 18 14 9 4 1 1 1 1 -0 -1 -1 -1 -2 -2 -2 -2 -2 -1 -1 -1 -1 -2 -2 -2 -2 -4 -3 -3 -2 -2 -2 -1 0 -1 -1 -1 -2 -2 -2 -2 -2 -1 -0 -1 -2 -0
-2 -2 -2 -2 -2 -3 -3 -4 -3 -0 2 5 5 3 2 1 2 2 3 5 6 6 5 2 2 3 4 3 1 1 1 0 -0 -0 -0 -1 -1 -1 -1 -1 -1 -0 -1 -1 -2 -3 -3 -2 -3 -3 -3 -1 -2 -2 -1 1 -1 -1 -1 -2 -2 -2 -2 -3 -2 -1 -1 -2 -1
-2 -2 -2 -1 -1 -1 -2 -3 -2 -2 -1 0 1 1 1 1 0 0 1 2 2 2 2 2 2 3 4 3 1 1 1 0 -0 -0 -0 -1 -2 -2 -2 -1 -1 -2 -2 -2 -3 -3 -3 -1 -2 -2 -3 -1 -2 -2 -1 0 -1 -1 -1 -1 -2 -2 -1 -2 -2 -2 -2 -2 -2
-3 -2 -2 -1 -1 -0 -0 -1 -1 -1 -1 -2 -1 -1 -1 -0 -1 -1 -1 -1 -2 -0 1 1 1 2 3 2 1 1 0 -1 -1 -1 -1 -1 -2 -3 -3 -2 -3 -4 -4 -3 -3 -3 -3 -1 -1 -2 -2 -1 -1 -2 -1 1 -1 -2 -1 -0 -2 -2 -2 -1 -2 -2 -2 -2 -2
-3 -2 -2 -2 -2 -1 0 0 -0 -0 -1 -2 -2 -2 -1 -1 -1 -1 -2 -2 -1 -1 -0 -0 1 1 1 1 1 0 -0 -1 -0 -1 -2 -3 -3 -3 -4 -3 -4 -4 -5 -4 -3 -3 -2 -1 -1 -2 -2 -1 -1 -1 -1 0 -1 -2 -2 -1 -1 -1 -2 -1 -0 -1 -2 -2 -2
-2 -2 -2 -3 -3 -2 -0 -1 -1 -0 -0 -1 -2 -1 -1 -1 -1 -1 -1 -1 0 -0 0 2 2 1 -0 0 0 -0 -1 1 1 -0 -2 -4 -4 -4 -4 -4 -4 -4 -5 -5 -3 -3 -2 -2 -1 -2 -2 -1 -0 -1 -1 -0 -0 -1 -2 -1 0 -0 -1 -1 0 -1 -2 -2 -1
-2 -2 -2 -3 -3 -2 -2 -2 -2 -1 -1 -2 -1 -0 0 -1 -0 -0 0 1 1 1 1 3 1 -1 -2 -0 -1 -2 -2 -0 -0 -1 -3 -4 -4 -4 -4 -4 -3 -3 -4 -4 -3 -2 -2 -2 -2 -2 -2 -1 -0 -0 -1 -1 -0 -0 -1 -1 1 1 0 -0 0 -0 -1 -1 -1
-2 -2 -3 -3 -3 -3 -3 -4 -3 -2 -2 -3 -2 -1 0 -0 0 1 1 0 -0 -0 -1 -1 -2 -3 -3 -2 -2 -2 -2 -2 -1 -1 -2 -3 -3 -3 -3 -3 -3 -3 -3 -3 -2 -1 -1 -2 -1 -1 -1 -1 -0 -0 -0 -1 -0 -0 0 0 1 1 1 1 1 1 0 -0 -1
-2 -2 -2 -2 -2 -3 -3 -4 -3 -3 -3 -4 -3 -1 -0 -1 -0 1 0 -2 -2 -2 -2 -3 -3 -3 -2 -2 -2 -2 -2 -1 -1 -1 -2 -2 -2 -2 -2 -2 -1 -1 -1 -2 -0 0 -0 -1 0 1 0 -0 -0 -0 0 -0 -0 0 1 1 1 1 2 2 2 2 1 0 -1
-2 -2 -1 -1 -2 -3 -3 -3 -3 -3 -3 -3 -2 -1 -1 -2 -2 -1 -1 -3 -3 -3 -2 -3 -3 -2 -1 -1 -1 -1 -0 0 -0 -0 -1 -1 -0 -0 -0 -0 1 1 1 0 1 2 2 1 2 2 2 1 0 0 0 0 0 1 1 1 1 1 2 2 2 2 2 1 -0
-2 -1 -1 -1 -3 -3 -3 -3 -3 -2 -2 -3 -2 -1 -1 -3 -3 -2 -2 -4 -3 -2 -1 -1 -1 1 2 2 2 2 3 3 2 2 2 2 2 2 2 3 3 3 3 2 2 3 3 3 2 2 2 1 1 0 0 0 0 0 0 0 1 1 1 2 2 2 2 2 1
-1 -1 -1 -1 -3 -3 -3 -3 -3 -2 -2 -2 -1 -0 -1 -3 -2 -2 -2 -2 -0 1 2 2 3 4 4 4 5 6 5 4 5 4 4 3 3 4 4 4 3 3 3 2 2 2 2 2 2 1 1 1 0 0 0 0 0 0 -0 -0 -0 0 1 1 2 2 2 1 1
-1 -1 -1 -1 -2 -3 -2 -3 -3 -2 -2 -1 -1 -1 -2 -2 -2 -1 -0 1 3 4 4 4 4 4 4 3 5 5 5 4 4 4 3 3 2 3 3 2 2 2 1 1 0 0 -0 -0 -0 0 0 0 0 -0 -0 -0 -0 0 -0 -0 -1 -1 -0 0 1 1 1 1 0
-1 -1 -1 -2 -2 -2 -2 -3 -2 -2 -1 -0 -0 -1 -2 -2 -2 -1 -0 1 3 3 3 2 2 2 2 1 2 2 2 1 1 1 1 1 0 0 0 1 0 -0 -0 -0 -0 -0 -0 -1 -0 0 0 0 0 0 0 -0 -0 0 0 -0 -1 -1 -1 -1 -0 0 1 0 0
-1 -2 -2 -2 -2 -2 -2 -2 -1 -0 0 1 1 0 -1 -1 -1 -1 -1 -1 1 1 1 -0 0 0 -0 -0 -0 -0 -0 0 -1 -1 -1 -0 -1 -1 -0 1 0 0 0 0 0 0 0 0 0 0 0 1 1 0 0 -0 -0 0 0 0 -0 -1 -1 -1 -1 -1 -0 -0 -0
-2 -3 -3 -3 -2 -2 -2 -1 0 1 1 1 1 1 -0 -0 -0 -1 -1 -1 1 1 0 -1 0 0 -0 -1 -0 -1 -1 0 -0 -1 -1 -0 -0 -0 0 1 1 0 0 0 -0 -0 -0 -0 -0 -0 0 0 0 0 0 0 -0 -0 -0 -0 -1 -1 -1 -1 -1 -1 -1 -1 -1
-3 -3 -3 -3 -2 -2 -1 -0 0 0 0 0 0 -0 -1 -1 -1 -1 -0 0 1 1 0 0 1 1 1 0 0 -0 -0 0 0 -0 -1 -0 -1 -1 -0 0 -0 -1 -1 -1 -2 -2 -1 -1 -1 -0 -0 -0 -0 -0 0 0 0 -0 -0 -1 -1 -2 -2 -2 -1 -1 -1 -1 -1
-3 -3 -3 -2 -2 -1 -1 -0 0 -0 -0 -1 -1 -1 -2 -2 -1 -0 0 1 0 0 0 1 1 1 1 1 1 0 -0 0 0 -0 -0 -0 -1 -1 -1 -0 -1 -1 -1 -1 -2 -2 -2 -2 -2 -1 -1 -1 -1 -0 0 0 0 0 -0 -1 -2 -2 -2 -2 -2 -1 -1 -1 -1
-2 -2 -2 -1 -1 -0 -0 0 0 -0 -1 -1 -1 -2 -2 -2 -1 -0 0 -0 -0 0 0 0 1 0 0 0 -0 -0 -0 -0 -0 -0 -0 -0 -0 -0 -0 -0 -0 -1 -1 -1 -1 -2 -2 -1 -2 -2 -1 -1 -0 0 1 1 0 -0 -0 -1 -1 -2 -2 -2 -2 -1 -1 -1 -0
-1 -1 -0 -0 -0 0 1 1 1 0 -1 -1 -1 -1 -1 -1 -0 -0 -0 -1 -0 -0 -0 0 0 0 -0 -1 -1 -0 -0 -1 -1 -1 -1 -1 -1 -1 -0 -0 -1 -1 -1 -1 -1 -1 -1 -1 -1 -1 -1 -1 -0 0 1 1 0 -0 -0 -0 -0 -1 -1 -1 -1 -2 -1 -1 -0
-1 -0 -0 -0 0 1 1 1 1 0 -0 -1 -1 -1 -1 -0 -0 -0 -1 -1 -1 -0 -0 -0 0 0 -0 -1 -1 -1 -1 -1 -1 -1 -1 -1 -1 -1 -1 -1 -1 -1 -1 -1 -1 -1 -1 -2 -2 -2 -1 -0 0 0 -0 -1 -1 -1 -1 -0 0 0 -0 -1 -1 -2 -2 -2 -1
-0 -1 -1 -1 0 1 1 1 1 -0 -1 -0 -0 -1 -1 -0 -0 -0 -0 -0 -0 -0 -0 -0 -0 0 -0 -0 -1 -1 -1 -1 -1 -1 -0 -0 -0 -0 -1 -1 -1 -1 -1 -0 -1 -1 -1 -2 -2 -2 -1 -0 0 0 -0 -1 -2 -1 -1 -0 0 0 0 -1 -1 -1 -1 -2 -1
-0 -1 -1 -1 -0 -0 0 1 0 -0 -1 -0 -1 -1 -1 0 0 0 0 0 -0 -0 -0 -0 0 0 0 -1 -1 -1 -1 -1 -1 -0 -0 0 0 0 -0 -1 -1 -1 -0 0 -0 -0 -0 -1 -2 -2 -1 -1 0 1 0 -0 -1 -2 -1 -1 -1 -0 -0 -1 -1 -1 -1 -1 -1
0 -1 -1 -0 -0 -0 0 0 -0 -1 -1 -1 -1 -1 -0 1 1 1 0 -0 -0 -1 -1 -0 0 0 -0 -1 -1 -0 -0 -1 -0 -0 0 0 0 0 -0 -1 -0 -0 0 1 0 -0 -0 -1 -1 -1 -1 -1 0 1 1 0 -1 -1 -1 -1 -1 -1 -1 -2 -1 -1 -1 -0 -0
1 0 0 -0 -0 -0 -0 -0 -1 -2 -2 -2 -1 -0 1 1 1 1 0 -0 -1 -1 -0 1 1 0 -0 -1 -0 -0 -1 -1 -0 0 0 1 1 -0 -1 -1 -0 0 0 1 0 0 0 -0 -1 -1 -1 -1 -0 1 1 1 0 -1 -1 -2 -2 -2 -2 -2 -1 -1 -1 -0 -0
2 1 1 0 0 -0 -1 -1 -2 -2 -2 -2 -1 0 1 1 1 1 0 -0 -1 -0 0 1 0 -0 -1 -0 -0 -0 -0 -0 0 1 1 1 0 -0 -1 -1 -0 -0 0 1 0 0 0 -0 -1 -1 -1 -1 -1 -0 0 1 0 0 -0 -1 -2 -2 -2 -2 -1 -1 -1 -0 -0
2 2 1 1 0 -0 -1 -1 -2 -2 -2 -1 -0 0 1 1 1 1 0 -0 0 0 1 1 -0 -0 -0 0 -0 -0 -0 0 0 1 1 1 0 -0 -1 -1 -0 -0 0 0 0 0 -0 -0 -1 -1 -1 -2 -1 -1 -0 0 0 0 -0 -1 -1 -2 -2 -2 -1 -1 -1 -1 -0
2 2 2 1 0 -0 -1 -1 -2 -2 -1 -1 0 1 2 2 1 1 0 0 0 1 0 0 0 -0 -0 0 -0 -0 -1 -0 0 1 1 1 0 -0 -1 -1 -0 -0 0 0 0 0 -0 -0 -1 -1 -2 -2 -1 -1 -1 -0 0 0 -0 -1 -1 -1 -1 -1 -1 -1 -1 -1 -1
0 1 2 2 1 1 -0 -1 -1 -1 -0 -0 1 2 2 2 2 1 0 -0 -0 0 0 1 1 0 -0 0 -0 -1 -1 -0 0 1 1 1 0 -0 -1 -1 -1 -0 0 0 0 0 -0 -0 -1 -1 -1 -2 -1 -1 -1 -1 -0 -0 -0 -1 -1 -1 -1 -1 -1 -1 -1 -1 -1
-1 0 1 2 2 2 1 0 -0 -0 0 1 1 2 2 2 1 1 -0 -1 -0 0 1 1 1 1 0 -0 -0 -1 -1 -0 0 1 1 1 -0 -1 -1 -1 -1 -1 -0 -0 -0 -0 -0 -0 -1 -1 -1 -1 -1 -1 -1 -1 -1 -1 -1 -1 -1 -1 -1 -1 -1 -1 -1 -0 -0
-2 -0 1 2 3 3 2 1 1 1 1 1 2 2 2 1 0 -0 -1 -1 0 1 1 1 1 1 0 -0 -1 -1 -0 0 1 1 1 0 -0 -1 -1 -2 -1 -1 -1 -0 -0 -0 -0 -0 -0 -0 -0 -0 -0 -0 -0 -0 -0 -1 -1 -1 -1 -1 -1 -1 -1 -1 -1 -0 -0
-2 -1 1 3 4 4 3 2 2 2 2 2 2 2 1 0 -0 -1 -1 -0 1 1 1 1 1 0 -0 -1 -1 -1 -1 1 2 1 1 0 -0 -1 -1 -2 -2 -2 -1 -1 -1 -0 -0 -0 -0 -0 0 0 -0 -1 -1 -1 -1 -1 -1 -1 -2 -1 -1 -0 -0 -0 -0 -0 -0
-2 -0 1 3 4 5 4 4 3 2 2 2 1 1 1 0 -0 -1 -1 -0 0 0 0 1 0 -0 -1 -1 -2 -1 -0 1 2 2 1 -0 -1 -1 -1 -1 -2 -2 -2 -1 -1 -1 -1 -0 -0 -0 0 1 -0 -1 -1 -1 -1 -1 -1 -2 -2 -1 -1 -0 -0 -0 -0 -1 -0
-1 -0 1 3 4 4 4 4 3 3 2 1 1 1 0 0 -0 -1 -1 -1 -0 0 0 1 -0 -1 -1 -1 -1 -1 -0 0 1 2 1 -0 -2 -1 -1 -1 -2 -2 -2 -1 -1 -1 -1 -1 -0 -0 -0 0 -0 -1 -1 -1 -1 -2 -2 -2 -1 -1 -1 -0 -0 -0 -0 -1 -0
-2 -1 0 1 2 3 3 3 3 2 2 1 1 1 0 -0 -1 -1 -1 -0 0 0 0 0 -1 -1 -2 -1 -1 -0 -0 0 1 1 1 -1 -2 -2 -1 -1 -2 -2 -2 -1 -1 -1 -1 -1 -1 -1 -0 -0 -0 -1 -1 -0 -1 -2 -2 -2 -1 -1 -1 -1 -0 -0 0 -0 -0
-2 -2 -1 0 1 2 2 3 2 2 2 2 1 1 -0 -1 -1 -0 0 1 0 -0 -0 -1 -2 -2 -2 -1 -0 1 1 1 1 0 -0 -1 -2 -2 -2 -1 -1 -2 -2 -2 -1 -1 -1 -1 -1 -1 -1 -0 -0 -0 -0 -0 -0 -1 -2 -3 -2 -1 -0 -1 -1 -0 -0 -0 -0
Height
5764 5765 5767 5770 5773 5773 5772 5772 5772 5772 5769 5764 5759 5758 5759 5760 5761 5763 5765 5765 5766 5766 5766 5765 5765 5765 5765 5765 5766 5766 5767 5767 5767 5767 5767 5767 5767 5767 5767 5767 5767 5767 5767 5766 5766 5765 5765 5765 5765 5765 5764 5764 5764 5763 5763 5763 5763 5762 5762 5762 5762 5761 5761 5760 5759 5759 5758 5758 5757
5761 5762 5763 5765 5768 5774 5778 5776 5770 5765 5762 5759 5757 5757 5757 5759 5761 5761 5762 5763 5762 5762 5762 5762 5761 5762 5762 5762 5763 5763 5763 5763 5763 5763 5763 5763 5763 5763 5764 5763 5763 5763 5762 5762 5762 5762 5762 5761 5761 5761 5761 5760 5760 5760 5760 5759 5759 5759 5759 5758 5758 5758 5757 5757 5756 5755 5755 5754 5753
5758 5759 5761 5762 5762 5762 5764 5768 5767 5765 5762 5757 5755 5754 5755 5756 5757 5758 5758 5760 5760 5760 5759 5759 5758 5759 5760 5759 5759 5759 5759 5759 5759 5759 5760 5760 5760 5760 5759 5759 5759 5759 5758 5758 5758 5758 5757 5757 5757 5757 5757 5756 5757 5757 5756 5756 5756 5756 5755 5755 5754 5754 5754 5753 5752 5752 5752 5751 5750
5755 5756 5757 5759 5760 5758 5755 5753 5754 5755 5756 5755 5754 5752 5751 5752 5752 5753 5754 5755 5756 5756 5756 5756 5756 5756 5756 5755 5755 5755 5755 5756 5756 5756 5756 5756 5756 5755 5755 5755 5755 5755 5755 5754 5754 5754 5754 5754 5753 5753 5753 5753 5753 5753 5753 5752 5752 5752 5752 5751 5751 5751 5750 5750 5749 5749 5748 5747 5747
5751 5752 5754 5755 5756 5755 5753 5749 5745 5742 5740 5741 5745 5747 5747 5747 5748 5750 5751 5752 5752 5752 5752 5753 5753 5753 5752 5752 5752 5752 5752 5752 5753 5752 5752 5752 5752 5752 5752 5752 5751 5751 5751 5751 5751 5751 5750 5750 5750 5750 5749 5749 5749 5749 5749 5749 5749 5748 5748 5747 5747 5747 5747 5746 5745 5745 5745 5744 5743
5748 5749 5750 5750 5751 5751 5750 5748 5746 5742 5740 5738 5737 5738 5739 5741 5743 5745 5746 5747 5747 5748 5749 5750 5749 5749 5749 5749 5749 5749 5750 5750 5750 5750 5749 5749 5748 5748 5748 5748 5748 5748 5747 5747 5747 5747 5747 5747 5746 5746 5746 5746 5746 5746 5746 5745 5745 5745 5744 5744 5743 5743 5743 5742 5742 5741 5741 5741 5740
5744 5745 5746 5746 5747 5747 5747 5746 5744 5742 5740 5739 5737 5737 5737 5737 5739 5741 5742 5744 5744 5745 5746 5746 5746 5746 5746 5746 5746 5747 5747 5747 5747 5746 5746 5746 5745 5745 5745 5745 5744 5744 5744 5744 5743 5743 5743 5743 5742 5742 5742 5742 5742 5742 5742 5742 5742 5741 5741 5740 5740 5739 5739 5738 5738 5737 5737 5737 5737
5740 5741 5741 5742 5742 5742 5742 5742 5742 5741 5740 5739 5738 5737 5736 5736 5737 5737 5738 5740 5741 5742 5742 5742 5743 5743 5743 5743 5743 5743 5743 5743 5743 5743 5742 5742 5742 5742 5741 5741 5741 5741 5740 5740 5739 5739 5739 5739 5739 5739 5738 5738 5738 5738 5738 5738 5738 5737 5737 5737 5736 5736 5735 5735 5734 5734 5733 5733 5733
5736 5736 5737 5737 5738 5738 5738 5738 5738 5738 5738 5737 5737 5736 5736 5736 5736 5736 5736 5737 5737 5738 5739 5739 5739 5740 5740 5740 5740 5740 5740 5740 5740 5739 5739 5738 5738 5738 5737 5737 5737 5737 5736 5736 5736 5736 5735 5735 5735 5735 5735 5735 5735 5735 5734 5734 5734 5734 5733 5733 5732 5732 5731 5731 5730 5730 5729 5729 5729
5732 5732 5732 5733 5733 5734 5734 5734 5734 5734 5734 5734 5733 5733 5733 5733 5733 5733 5733 5734 5734 5735 5735 5735 5736 5736 5736 5736 5736 5736 5736 5736 5736 5735 5735 5734 5734 5734 5733 5733 5733 5732 5732 5732 5732 5732 5732 5731 5731 5731 5731 5731 5731 5731 5731 5730 5730 5730 5730 5729 5729 5728 5727 5727 5727 5726 5726 5725 5725
5728 5728 5729 5729 5729 5729 5730 5730 5730 5730 5729 5729 5729 5729 5730 5730 5730 5730 5730 5730 5731 5731 5731 5731 5732 5732 5732 5731 5731 5731 5731 5731 5731 5731 5730 5730 5730 5730 5729 5729 5728 5728 5728 5728 5728 5728 5728 5727 5727 5727 5727 5727 5727 5727 5727 5727 5727 5726 5726 5725 5725 5725 5724 5723 5723 5722 5722 5721 5721
5724 5724 5725 5725 5725 5725 5726 5726 5725 5725 5725 5725 5725 5725 5726 5726 5726 5726 5726 5727 5727 5727 5726 5726 5727 5727 5727 5726 5726 5726 5727 5726 5726 5726 5726 5726 5725 5725 5725 5725 5724 5724 5724 5724 5724 5724 5724 5723 5723 5723 5723 5723 5723 5723 5723 5723 5723 5722 5722 5722 5721 5721 5720 5720 5719 5718 5718 5717 5717
5721 5721 5721 5721 5721 5721 5721 5721 5721 5721 5721 5721 5721 5721 5722 5722 5722 5722 5722 5722 5722 5721 5721 5721 5722 5722 5722 5721 5721 5722 5722 5722 5722 5722 5721 5721 5721 5721 5721 5721 5720 5720 5720 5720 5720 5720 5720 5720 5719 5719 5719 5719 5719 5719 5719 5719 5719 5719 5718 5718 5718 5717 5717 5716 5715 5715 5714 5713 5713
5717 5717 5717 5717 5717 5717 5717 5717 5717 5717 5717 5717 5717 5717 5717 5717 5717 5717 5718 5717 5717 5717 5717 5717 5717 5717 5717 5717 5717 5717 5717 5717 5717 5717 5717 5717 5717 5717 5717 5717 5716 5716 5716 5716 5716 5716 5716 5716 5716 5716 5716 5716 5716 5716 5715 5715 5715 5715 5715 5714 5714 5713 5713 5712 5712 5711 5710 5709 5709
5713 5714 5713 5713 5713 5713 5713 5713 5713 5713 5714 5714 5713 5713 5714 5713 5713 5713 5714 5713 5713 5713 5713 5713 5713 5713 5713 5713 5713 5713 5713 5713 5713 5713 5713 5713 5713 5713 5713 5713 5712 5712 5712 5712 5712 5712 5712 5712 5712 5712 5712 5712 5712 5712 5712 5711 5711 5711 5710 5710 5710 5709 5709 5708 5708 5707 5707 5706 5705
5710 5709 5709 5709 5709 5710 5710 5710 5710 5710 5710 5710 5710 5710 5710 5710 5710 5710 5710 5710 5710 5710 5710 5710 5710 5710 5710 5710 5710 5710 5710 5710 5710 5710 5710 5710 5709 5710 5710 5709 5709 5709 5709 5709 5709 5709 5709 5709 5709 5709 5708 5708 5708 5707 5707 5707 5707 5707 5706 5706 5706 5705 5705 5704 5704 5703 5702 5702 5701
5705 5705 5705 5705 5705 5706 5706 5706 5706 5706 5707 5707 5707 5707 5707 5707 5707 5707 5707 5707 5707 5707 5707 5707 5707 5707 5707 5707 5707 5707 5707 5706 5706 5706 5706 5706 5706 5706 5706 5706 5706 5705 5705 5705 5705 5705 5705 5705 5705 5705 5705 5704 5704 5704 5703 5703 5703 5703 5702 5702 5702 5701 5701 5700 5700 5699 5699 5698 5697
5701 5701 5701 5701 5701 5702 5702 5702 5702 5702 5703 5703 5703 5703 5703 5703 5703 5703 5703 5704 5704 5704 5704 5703 5703 5703 5703 5703 5703 5703 5703 5703 5702 5702 5702 5702 5702 5702 5702 5702 5702 5702 5702 5702 5702 5702 5702 5701 5701 5701 5701 5701 5700 5700 5700 5699 5699 5699 5698 5698 5697 5697 5697 5696 5696 5695 5695 5694 5693
5697 5697 5697 5697 5697 5697 5698 5698 5698 5699 5699 5699 5699 5699 5699 5699 5699 5700 5700 5700 5700 5700 5700 5700 5699 5699 5699 5699 5699 5699 5699 5699 5699 5699 5699 5699 5699 5699 5699 5698 5698 5698 5698 5698 5698 5698 5698 5698 5697 5697 5697 5697 5697 5696 5696 5696 5695 5695 5694 5694 5693 5693 5692 5692 5692 5691 5691 5690 5689
5692 5693 5693 5693 5693 5694 5694 5694 5695 5695 5695 5695 5695 5695 5695 5695 5695 5696 5696 5696 5696 5696 5696 5696 5695 5695 5695 5695 5695 5695 5695 5695 5695 5695 5695 5695 5695 5695 5695 5695 5695 5695 5695 5694 5694 5694 5694 5694 5694 5693 5693 5693 5693 5692 5692 5692 5691 5691 5690 5690 5690 5689 5689 5688 5688 5687 5687 5686 5686
5689 5689 5689 5689 5690 5690 5690 5691 5691 5691 5691 5691 5691 5691 5691 5691 5691 5692 5692 5692 5692 5692 5692 5692 5692 5691 5691 5692 5691 5691 5691 5691 5691 5691 5691 5691 5691 5692 5691 5691 5691 5691 5691 5690 5690 5690 5690 5690 5690 5690 5690 5689 5689 5689 5688 5688 5687 5687 5687 5686 5686 5685 5685 5684 5684 5683 5683 5682 5682
5685 5685 5685 5686 5686 5686 5686 5687 5687 5687 5687 5687 5687 5687 5687 5687 5687 5687 5688 5688 5688 5688 5688 5688 5688 5688 5688 5687 5687 5687 5687 5687 5687 5687 5687 5687 5687 5687 5687 5687 5687 5687 5687 5687 5687 5687 5686 5686 5686 5686 5686 5686 5685 5685 5685 5685 5684 5684 5683 5682 5682 5682 5681 5681 5680 5680 5679 5678 5678
5681 5681 5682 5682 5682 5682 5682 5682 5683 5683 5683 5683 5683 5683 5683 5683 5683 5683 5684 5684 5684 5684 5684 5684 5684 5684 5684 5684 5684 5684 5684 5684 5684 5683 5683 5683 5683 5683 5683 5683 5683 5683 5683 5683 5683 5683 5683 5683 5682 5682 5682 5682 5682 5682 5681 5681 5681 5680 5679 5679 5678 5678 5677 5677 5676 5676 5675 5675 5674
5677 5678 5678 5678 5678 5678 5679 5679 5679 5679 5679 5679 5679 5679 5679 5679 5680 5680 5680 5680 5680 5680 5680 5680 5680 5680 5680 5680 5680 5680 5680 5680 5680 5680 5680 5680 5680 5680 5680 5680 5680 5680 5680 5679 5679 5679 5679 5679 5679 5679 5679 5679 5678 5678 5678 5677 5677 5676 5676 5675 5675 5674 5673 5673 5672 5672 5672 5671 5670
5674 5674 5674 5675 5675 5675 5675 5675 5675 5675 5675 5675 5675 5676 5676 5676 5676 5676 5676 5676 5676 5677 5677 5677 5677 5676 5676 5676 5676 5676 5676 5676 5676 5676 5676 5676 5676 5676 5676 5676 5676 5676 5676 5676 5676 5676 5676 5676 5675 5675 5675 5675 5675 5674 5674 5673 5673 5672 5672 5672 5671 5670 5670 5669 5668 5668 5667 5667 5666
5671 5671 5671 5671 5671 5672 5672 5672 5672 5672 5672 5672 5672 5672 5672 5672 5672 5673 5673 5673 5673 5673 5673 5673 5673 5673 5673 5673 5673 5673 5673 5673 5673 5673 5673 5673 5673 5673 5673 5673 5673 5673 5673 5673 5672 5672 5672 5672 5672 5672 5672 5671 5671 5671 5670 5669 5669 5668 5668 5668 5667 5667 5666 5665 5665 5664 5664 5663 5662
5667 5667 5667 5667 5668 5668 5668 5668 5668 5668 5668 5668 5669 5669 5669 5669 5669 5669 5669 5669 5669 5670 5670 5670 5670 5670 5669 5670 5670 5670 5669 5670 5670 5670 5670 5670 5670 5670 5670 5670 5670 5669 5669 5669 5669 5669 5668 5668 5668 5668 5668 5667 5667 5667 5666 5665 5665 5665 5664 5664 5663 5663 5662 5662 5661 5660 5660 5659 5658
5663 5663 5664 5664 5664 5664 5664 5664 5664 5665 5665 5665 5665 5665 5666 5666 5666 5666 5666 5666 5666 5666 5666 5666 5666 5666 5666 5666 5666 5666 5666 5666 5666 5666 5666 5666 5666 5666 5666 5666 5666 5666 5666 5666 5666 5665 5665 5664 5664 5664 5664 5664 5663 5663 5662 5662 5661 5661 5660 5660 5660 5659 5658 5658 5657 5657 5656 5656 5655
5660 5660 5660 5660 5661 5661 5661 5661 5661 5661 5661 5661 5662 5662 5662 5662 5662 5662 5662 5662 5663 5663 5663 5663 5663 5663 5663 5663 5663 5663 5663 5663 5663 5663 5663 5663 5663 5663 5663 5663 5663 5663 5662 5662 5662 5662 5661 5661 5661 5660 5660 5660 5660 5659 5659 5658 5657 5657 5657 5656 5656 5655 5655 5654 5653 5653 5652 5652 5651
5656 5656 5657 5657 5657 5657 5657 5657 5657 5657 5657 5658 5658 5658 5659 5659 5659 5659 5659 5659 5659 5660 5660 5660 5660 5660 5660 5660 5660 5660 5660 5660 5660 5660 5660 5660 5660 5659 5659 5659 5659 5659 5659 5659 5658 5658 5657 5657 5657 5657 5656 5656 5656 5656 5655 5655 5654 5653 5653 5652 5652 5651 5651 5650 5650 5649 5649 5648 5647
5652 5652 5653 5653 5653 5653 5653 5653 5653 5654 5654 5654 5655 5655 5655 5656 5656 5656 5656 5656 5656 5656 5656 5656 5656 5656 5656 5656 5656 5656 5656 5656 5656 5656 5656 5656 5656 5656 5656 5656 5656 5656 5655 5655 5655 5654 5654 5653 5653 5653 5652 5652 5652 5652 5652 5651 5650 5650 5649 5648 5648 5647 5647 5646 5646 5645 5645 5644 5644
5648 5648 5649 5649 5649 5649 5649 5650 5650 5650 5651 5651 5651 5652 5652 5652 5652 5652 5652 5652 5652 5652 5653 5653 5653 5653 5652 5653 5653 5653 5653 5653 5653 5653 5653 5653 5652 5652 5652 5652 5652 5652 5652 5651 5651 5650 5650 5650 5649 5649 5649 5649 5649 5648 5648 5647 5647 5646 5645 5645 5644 5643 5643 5642 5642 5641 5641 5640 5640
5644 5644 5645 5645 5645 5645 5646 5646 5646 5647 5647 5647 5647 5648 5648 5648 5648 5648 5648 5648 5649 5649 5649 5649 5649 5649 5649 5649 5649 5649 5649 5649 5649 5649 5649 5649 5649 5649 5648 5648 5648 5648 5648 5647 5647 5647 5646 5646 5646 5645 5645 5645 5645 5644 5644 5643 5643 5642 5642 5641 5640 5639 5639 5638 5638 5637 5637 5636 5636
5640 5641 5641 5641 5641 5642 5642 5642 5642 5642 5643 5643 5644 5644 5644 5644 5644 5644 5645 5645 5645 5645 5645 5645 5645 5645 5645 5645 5645 5645 5645 5645 5645 5645 5645 5645 5645 5645 5645 5645 5644 5644 5644 5644 5643 5643 5643 5642 5642 5642 5642 5641 5641 5641 5640 5640 5639 5638 5637 5637 5636 5636 5635 5634 5634 5633 5633 5632 5632
5636 5637 5637 5637 5637 5637 5638 5638 5638 5639 5639 5640 5640 5640 5640 5640 5640 5640 5640 5641 5641 5641 5641 5641 5641 5641 5641 5641 5641 5641 5641 5641 5641 5641 5641 5641 5641 5641 5641 5641 5641 5641 5640 5640 5640 5639 5639 5639 5638 5638 5638 5637 5637 5637 5636 5636 5635 5634 5634 5633 5632 5632 5631 5631 5630 5629 5629 5628 5628
5632 5632 5633 5633 5633 5634 5634 5634 5634 5635 5635 5635 5636 5636 5636 5636 5636 5636 5636 5637 5637 5637 5637 5637 5637 5637 5637 5637 5637 5637 5637 5637 5637 5637 5637 5637 5637 5637 5637 5637 5637 5637 5637 5636 5636 5635 5635 5635 5635 5635 5634 5634 5633 5633 5632 5632 5631 5631 5630 5629 5628 5628 5627 5627 5626 5626 5625 5625 5625
5627 5628 5628 5629 5629 5630 5630 5630 5630 5631 5631 5631 5631 5632 5632 5632 5632 5632 5632 5632 5633 5633 5633 5633 5633 5633 5633 5633 5633 5633 5633 5633 5634 5633 5633 5633 5634 5634 5633 5633 5633 5633 5632 5632 5632 5632 5632 5631 5631 5631 5631 5630 5630 5629 5629 5628 5627 5627 5626 5625 5625 5624 5623 5623 5622 5622 5622 5621 5621
5623 5623 5624 5625 5625 5625 5626 5626 5626 5626 5627 5627 5627 5627 5627 5627 5627 5627 5628 5628 5629 5629 5629 5629 5629 5629 5629 5629 5629 5629 5629 5629 5630 5630 5630 5630 5630 5630 5630 5630 5629 5629 5629 5628 5628 5628 5628 5627 5627 5627 5627 5627 5626 5625 5625 5624 5624 5623 5622 5622 5621 5620 5620 5619 5619 5618 5618 5618 5618
5618 5619 5619 5620 5620 5621 5621 5622 5622 5622 5622 5622 5623 5623 5623 5623 5623 5623 5624 5624 5624 5625 5625 5625 5625 5625 5625 5625 5625 5625 5625 5625 5626 5626 5626 5626 5626 5626 5626 5626 5625 5625 5625 5625 5625 5624 5624 5624 5624 5623 5623 5623 5622 5622 5621 5621 5620 5619 5618 5618 5617 5617 5616 5616 5616 5615 5615 5614 5614
5613 5614 5615 5615 5616 5616 5617 5617 5617 5617 5618 5618 5618 5619 5619 5619 5619 5619 5620 5620 5620 5621 5621 5621 5621 5621 5621 5621 5622 5622 5622 5622 5622 5622 5622 5622 5622 5622 5622 5622 5621 5621 5621 5621 5621 5621 5621 5620 5620 5620 5619 5619 5618 5618 5617 5617 5616 5616 5615 5614 5614 5613 5613 5612 5612 5612 5612 5611 5611
5609 5609 5610 5611 5611 5612 5612 5612 5613 5613 5614 5614 5614 5614 5615 5615 5615 5615 5616 5616 5616 5617 5617 5617 5617 5617 5617 5617 5617 5617 5618 5618 5618 5618 5618 5618 5618 5618 5618 5618 5617 5617 5617 5617 5617 5617 5617 5617 5616 5616 5616 5615 5615 5614 5614 5613 5612 5612 5611 5611 5611 5610 5609 5609 5609 5608 5608 5608 5608